Regional Weather Roundup
Issued by NWS Albany, NY

Home | Current Version | Previous Version | Text Only | Print | Product List | Glossary On
Versions: 1 2 3 4 5 6 7 8 9 10 11 12 13 14 15 16 17 18 19 20 21 22 23 24 25 26 27
000
ASUS41 KALY 010710
RWRALY

NEW YORK STATE HOURLY WEATHER ROUNDUP
NATIONAL WEATHER SERVICE ALBANY NY
300 AM EDT SUN MAY 01 2016

NOTE: "FAIR" INDICATES FEW OR NO CLOUDS BELOW 12,000 FEET WITH NO
SIGNIFICANT WEATHER AND/OR NO OBSTRUCTIONS TO VISIBILITY.

NYZ032-033-038>043-046>054-057>066-NYZ062>081-082-084-010800-
EAST


CITY           SKY/WX    TMP DP  RH WIND       PRES   REMARKS
ALBANY         CLOUDY    53  37  54 S6        30.17F
GLENS FALLS    CLOUDY    44  32  62 CALM      30.18S
POUGHKEEPSIE   PTCLDY    50  38  63 SE5       30.19S
NEWBURGH       CLOUDY    48  39  71 VRB5      30.19
MONTGOMERY     CLOUDY    48  38  68 CALM      30.18S
WHITE PLAINS   CLOUDY    47  38  71 CALM      30.19F
ISLIP          CLOUDY    48  37  65 S6        30.20F
NEW YORK CITY  CLOUDY    51  34  52 S6        30.20F
CENTRAL PARK   CLOUDY    50  33  52 SE6       30.22F
$$

NYZ005>009-017-018-044>046-055-056-010800-
CENTRAL


CITY           SKY/WX    TMP DP  RH WIND       PRES   REMARKS
FULTON         CLOUDY    51  40  65 E3        30.10F
SYRACUSE       CLOUDY    51  42  71 E8        30.10F
ROME           CLOUDY    51  42  71 E6        30.14S
ELMIRA         LGT RAIN  49  44  83 CALM      30.08F
BINGHAMTON     LGT RAIN  46  42  86 S8        30.10F
MONTICELLO     CLOUDY    46  39  76 SE6       30.17F
$$

NYZ026>034-041>043-087-010800-
NORTH


CITY           SKY/WX    TMP DP  RH WIND       PRES   REMARKS
WATERTOWN      CLOUDY    49  29  46 CALM      30.11F
FORT DRUM      NOT AVBL
MASSENA        MOCLDY    46  23  40 NE10      30.18F
SARANAC LAKE   CLOUDY    42  13  30 NE5       30.14F
PLATTSBURGH    CLOUDY    40  26  57 CALM      30.18S
$$

NYZ001>004-010>016-019>021-085-010800-
WEST


CITY           SKY/WX    TMP DP  RH WIND       PRES   REMARKS
NIAGARA FALLS  LGT RAIN  49  42  77 E6        30.02F
BUFFALO        LGT RAIN  50  46  86 E7        30.02F
DUNKIRK        LGT RAIN  49  47  93 NE7       29.98F
JAMESTOWN      CLOUDY    46  43  87 E9        29.95F
WELLSVILLE     LGT RAIN  46  44  93 SE12      30.01F FOG
ROCHESTER      LGT RAIN  52  43  71 E10       30.06F
PENN YAN       LGT RAIN  50  43  77 SE6       30.08F
$$

             KEY
       WCI = WIND CHILL INDEX
       VSB = VISIBILITY
       HX  = HEAT INDEX
$$




USA.gov is the U.S. government's official web portal to all federal, state and local government web resources and services.